M I D A S
Marine Information and Data Acquisition System
Tripno 898 of the Zeeleeuw from 2005-05-11 08:13:35 to 2005-05-11 10:35:43
Back to CruiseResearch ActivitiesStationsMapUnderway DataData graphs

EquipmentUnitsComments
TimeDGPSUTC
LatitudeDGPSDM.mWGS84
LongitudeDGPSDM.mWGS84
SpeedMeteo Stationm/sRelative wind speed
DirectionMeteo StationdegRelative wind direction
TemperatureMeteo Stationdeg CelciusAir temperature
PressureMeteo StationPaAtmospheric pressure
HumidityMeteo Station%Relative humidity
Missing or incorrect values are displayed as -999
Metereological data collected by the RV Zeeleeuw from 2005-05-11 08:13:02 to 2005-05-11 10:35:43
Time Latitude Longitude Speed Direction Temperature Pressure Humidity
2005-05-11 08:17 51°13.592 2°56.102 2.7 256 9.8 102540 65
2005-05-11 08:18 51°13.567 2°56.131 0.4 229 9.8 102540 63
2005-05-11 08:19 51°13.526 2°56.195 6.6 336 10 102540 64
2005-05-11 08:20 51°13.534 2°56.262 5.9 334 10 102530 61
2005-05-11 08:21 51°13.539 2°56.256 3.2 32 9.9 102530 62
2005-05-11 08:22 51°13.536 2°56.243 3.6 32 10 102540 64
2005-05-11 08:23 51°13.528 2°56.244 3.6 40 9.9 102540 63
2005-05-11 08:24 51°13.54 2°56.217 3.1 84 9.9 102540 65
2005-05-11 08:25 51°13.563 2°56.132 2.5 117 9.9 102540 65
2005-05-11 08:26 51°13.603 2°56.027 4.7 53 9.9 102540 66
2005-05-11 08:27 51°13.658 2°55.896 6.5 45 9.9 102530 66
2005-05-11 08:28 51°13.723 2°55.758 5.6 27 9.7 102540 65
2005-05-11 08:29 51°13.804 2°55.66 8 27 9.5 102530 66
2005-05-11 08:30 51°13.898 2°55.591 8.6 35 9.4 102540 66
2005-05-11 08:31 51°14.007 2°55.523 8.3 28 9.3 102540 67
2005-05-11 08:32 51°14.111 2°55.454 9.7 30 9.2 102530 67
2005-05-11 08:33 51°14.213 2°55.346 9.1 37 9.1 102530 68
2005-05-11 08:34 51°14.314 2°55.182 9.1 41 9.1 102540 67
2005-05-11 08:35 51°14.403 2°54.911 8.3 58 9 102530 66
2005-05-11 08:36 51°14.447 2°54.562 10.5 54 8.9 102540 66
2005-05-11 08:37 51°14.535 2°54.216 10.7 41 8.9 102530 67
2005-05-11 08:38 51°14.667 2°53.916 11.3 42 8.8 102540 64
2005-05-11 08:39 51°14.794 2°53.613 9.5 49 8.9 102540 66
2005-05-11 08:40 51°14.884 2°53.353 7.4 66 8.9 102550 65
2005-05-11 08:41 51°14.926 2°53.133 8 61 9 102540 68
2005-05-11 08:42 51°14.948 2°52.916 6.1 84 8.9 102540 66
2005-05-11 08:43 51°14.92 2°52.689 5.9 95 9 102550 67
2005-05-11 08:44 51°14.897 2°52.459 6.6 90 9 102550 66
2005-05-11 08:45 51°14.875 2°52.225 4.8 96 9.2 102550 68
2005-05-11 08:46 51°14.852 2°51.991 7.1 83 9.2 102550 68
2005-05-11 08:47 51°14.825 2°51.701 7 62 9.1 102550 64
2005-05-11 08:48 51°14.765 2°51.349 6.3 70 9 102550 64
2005-05-11 08:49 51°14.675 2°51.004 4.7 74 8.9 102550 62
2005-05-11 08:50 51°14.565 2°50.688 4 68 8.9 102560 62
2005-05-11 08:51 51°14.463 2°50.378 4.1 89 8.9 102560 61
2005-05-11 08:52 51°14.37 2°50.094 4.4 84 9.1 102560 68
2005-05-11 08:53 51°14.272 2°49.802 3.9 85 9 102570 67
2005-05-11 08:54 51°14.174 2°49.516 4.4 89 9 102570 66
2005-05-11 08:55 51°14.081 2°49.23 5.1 84 9.1 102560 68
2005-05-11 08:56 51°13.981 2°48.955 4 93 9.1 102560 66
2005-05-11 08:57 51°13.874 2°48.669 5.2 94 9.1 102570 66
2005-05-11 08:58 51°13.79 2°48.409 7.1 93 9.1 102570 65
2005-05-11 08:59 51°13.782 2°48.249 6.1 81 9.1 102560 65
2005-05-11 09:00 51°13.768 2°48.179 5.8 78 9.1 102560 65
2005-05-11 09:01 51°13.748 2°48.117 6.1 74 9 102560 64
2005-05-11 09:02 51°13.771 2°48.048 6.7 24 9.1 102560 67
2005-05-11 09:03 51°13.772 2°48.01 6.5 1 9.2 102560 63
2005-05-11 09:04 51°13.766 2°47.975 5.5 354 9.2 102560 63
2005-05-11 09:05 51°13.756 2°47.943 5.3 352 9.2 102560 63
2005-05-11 09:06 51°13.744 2°47.914 5.6 337 9.3 102560 65
2005-05-11 09:07 51°13.728 2°47.889 6.7 336 9.5 102560 66
2005-05-11 09:08 51°13.709 2°47.865 7.5 319 9.5 102570 66
2005-05-11 09:09 51°13.689 2°47.843 6 316 9.5 102560 66
2005-05-11 09:10 51°13.694 2°47.846 7.6 353 9.5 102570 66
2005-05-11 09:11 51°13.738 2°47.872 8.4 345 9.6 102560 66
2005-05-11 09:12 51°13.768 2°47.929 7.7 337 9.5 102550 63
2005-05-11 09:13 51°13.798 2°47.983 7.4 346 9.5 102570 64
2005-05-11 09:14 51°13.824 2°48.036 8.5 342 9.6 102560 63
2005-05-11 09:15 51°13.847 2°48.096 7.8 335 9.5 102560 62
2005-05-11 09:16 51°13.87 2°48.157 7.4 330 9.4 102570 61
2005-05-11 09:17 51°13.893 2°48.217 7.8 331 9.4 102570 64
2005-05-11 09:18 51°13.911 2°48.277 7.3 341 9.4 102560 63
2005-05-11 09:19 51°13.927 2°48.344 7.2 344 9.4 102560 64
2005-05-11 09:20 51°13.944 2°48.409 9 334 9.5 102560 65
2005-05-11 09:21 51°13.96 2°48.475 7.8 340 9.5 102560 64
2005-05-11 09:22 51°13.976 2°48.541 7.9 333 9.5 102560 65
2005-05-11 09:23 51°13.992 2°48.606 8.5 340 9.4 102560 64
2005-05-11 09:24 51°14.007 2°48.671 8 337 9.4 102550 65
2005-05-11 09:25 51°14.024 2°48.736 8.2 340 9.4 102560 64
2005-05-11 09:26 51°14.04 2°48.803 8.7 334 9.5 102560 65
2005-05-11 09:27 51°14.055 2°48.87 7.4 330 9.5 102570 67
2005-05-11 09:28 51°14.071 2°48.933 7.9 344 9.5 102560 66
2005-05-11 09:29 51°14.089 2°49.001 8.5 332 9.5 102550 65
2005-05-11 09:30 51°14.106 2°49.066 8.5 337 9.5 102550 65
2005-05-11 09:31 51°14.121 2°49.13 7.2 337 9.5 102560 63
2005-05-11 09:32 51°14.137 2°49.195 7.4 344 9.5 102560 64
2005-05-11 09:33 51°14.154 2°49.261 7.5 337 9.6 102560 61
2005-05-11 09:34 51°14.169 2°49.327 8.1 325 9.5 102560 60
2005-05-11 09:35 51°14.186 2°49.394 8.1 340 9.6 102560 63
2005-05-11 09:36 51°14.204 2°49.461 6.5 335 9.5 102560 59
2005-05-11 09:37 51°14.223 2°49.53 7.6 335 9.5 102570 62
2005-05-11 09:38 51°14.24 2°49.599 7.6 323 9.5 102560 57
2005-05-11 09:39 51°14.257 2°49.664 7.5 331 9.5 102560 60
2005-05-11 09:40 51°14.271 2°49.722 6.9 334 9.5 102560 61
2005-05-11 09:41 51°14.285 2°49.777 8.4 335 9.5 102560 62
2005-05-11 09:42 51°14.296 2°49.831 6.6 333 9.5 102560 62
2005-05-11 09:43 51°14.309 2°49.886 6.1 324 9.5 102560 60
2005-05-11 09:44 51°14.321 2°49.94 7.5 340 9.5 102560 61
2005-05-11 09:45 51°14.333 2°49.997 8.3 335 9.5 102550 58
2005-05-11 09:46 51°14.343 2°50.051 7.9 331 9.6 102550 59
2005-05-11 09:47 51°14.355 2°50.108 8.1 328 9.5 102560 57
2005-05-11 09:48 51°14.369 2°50.165 6.8 330 9.5 102560 57
2005-05-11 09:49 51°14.379 2°50.224 8.2 334 9.5 102550 58
2005-05-11 09:50 51°14.391 2°50.278 7.4 337 9.5 102560 57
2005-05-11 09:51 51°14.407 2°50.359 7.5 322 9.5 102550 57
2005-05-11 09:52 51°14.415 2°50.447 7.7 341 9.5 102550 57
2005-05-11 09:53 51°14.41 2°50.528 7.1 330 9.5 102550 55
2005-05-11 09:54 51°14.404 2°50.57 7.8 319 9.5 102560 55
2005-05-11 09:55 51°14.394 2°50.586 7.1 326 9.5 102560 59
2005-05-11 09:56 51°14.382 2°50.584 6 327 9.5 102560 57
2005-05-11 09:57 51°14.365 2°50.571 5.5 231 9.5 102560 58
2005-05-11 09:58 51°14.348 2°50.553 6.7 310 9.6 102570 59
2005-05-11 09:59 51°14.329 2°50.538 6.2 313 9.7 102570 58
2005-05-11 10:00 51°14.329 2°50.616 8 335 9.7 102560 59
2005-05-11 10:01 51°14.349 2°50.74 9.4 343 9.7 102560 58
2005-05-11 10:02 51°14.365 2°50.881 8.8 340 9.7 102550 57
2005-05-11 10:03 51°14.384 2°51.024 9.8 336 9.7 102550 57
2005-05-11 10:04 51°14.409 2°51.165 9.2 342 9.7 102550 57
2005-05-11 10:05 51°14.435 2°51.315 9.6 335 9.7 102550 58
2005-05-11 10:06 51°14.466 2°51.488 9 333 9.6 102550 58
2005-05-11 10:07 51°14.501 2°51.669 10.3 350 9.7 102550 62
2005-05-11 10:08 51°14.534 2°51.85 10.3 343 9.7 102550 59
2005-05-11 10:09 51°14.569 2°52.031 9.8 340 9.8 102550 61
2005-05-11 10:10 51°14.605 2°52.213 11.1 343 9.8 102550 58
2005-05-11 10:11 51°14.641 2°52.401 10.4 342 9.8 102550 57
2005-05-11 10:12 51°14.669 2°52.594 9.6 339 9.8 102550 58
2005-05-11 10:13 51°14.681 2°52.794 11.7 322 9.8 102550 59
2005-05-11 10:14 51°14.685 2°53.001 9.6 333 9.8 102550 64
2005-05-11 10:15 51°14.686 2°53.204 11.4 332 9.7 102550 61
2005-05-11 10:16 51°14.662 2°53.413 9.1 329 9.7 102540 58
2005-05-11 10:17 51°14.637 2°53.641 10.9 325 9.6 102540 59
2005-05-11 10:18 51°14.592 2°53.884 10.6 322 9.6 102550 58
2005-05-11 10:19 51°14.548 2°54.131 10.4 324 9.7 102540 59
2005-05-11 10:20 51°14.51 2°54.379 11.4 324 9.6 102530 56
2005-05-11 10:21 51°14.484 2°54.629 11.7 326 9.6 102540 56
2005-05-11 10:22 51°14.429 2°54.87 9.2 314 9.6 102530 56
2005-05-11 10:23 51°14.341 2°55.092 5.7 336 9.6 102540 59
2005-05-11 10:24 51°14.252 2°55.279 7.1 302 9.7 102560 60
2005-05-11 10:25 51°14.16 2°55.415 7.9 280 9.8 102560 61
2005-05-11 10:26 51°14.049 2°55.51 4 290 9.9 102570 60
2005-05-11 10:27 51°13.917 2°55.588 2.8 291 10.1 102570 57
2005-05-11 10:28 51°13.805 2°55.66 5.7 266 10.1 102570 59
2005-05-11 10:29 51°13.72 2°55.762 6.2 308 10.2 102570 57
2005-05-11 10:30 51°13.668 2°55.867 6.1 280 10.2 102570 58
2005-05-11 10:31 51°13.628 2°55.967 3.4 313 10.3 102570 57
2005-05-11 10:32 51°13.607 2°56.064 3.5 325 10.4 102570 57
2005-05-11 10:33 51°13.595 2°56.1 2.6 241 10.5 102570 59